Location: Baia Mare
(47.6567°N, 23.5850°E)
Time: 17:53:20
(UTC+03:00)

ISS - Pass Details

Date: 04 June 2018
Orbit: 402 x 406 km, 51.6° (Epoch: 20 June)

Event Time Altitude Azimuth Distance (km) Brightness Sun altitude
Rises 22:20:21 0° 293° (WNW) 2,325 1.4 -8.6°
Reaches altitude 10° 22:22:27 10° 289° (WNW) 1,462 0.1 -8.9°
Maximum altitude 22:25:40 57° 210° (SSW) 480 -3.6 -9.2°
Enters shadow 22:28:19 14° 133° (SE) 1,230 -2.1 -9.5°
